Regional Weather Roundup
Issued by NWS Northern Indiana

Home | Current Version | Previous Version | Graphics & Text | Print | Product List | Glossary On
Versions: 1 2 3 4 5 6 7 8 9 10 11 12 13 14 15 16 17 18 19 20 21 22 23 24 25 26 27 28 29 30 31 32 33 34 35 36 37 38 39 40 41 42 43 44 45 46 47 48 49 50
000
ASUS43 KIWX 161611
RWRIWX

KIWX WEATHER ROUNDUP
NATIONAL WEATHER SERVICE NORTHERN INDIANA
1200 PM EDT WED AUG 16 2017

NOTE: "FAIR" INDICATES FEW OR NO CLOUDS BELOW 12,000 FEET WITH NO
SIGNIFICANT WEATHER AND/OR OBSTRUCTIONS TO VISIBILITY.

* THESE STATIONS ARE NOT UNDER NWS QUALITY CONTROL. THEY ALSO MAY NOT
  REPORT WEATHER SUCH AS PRECIPITATION OR FOG.

INZ001>027-161700-
NORTHERN INDIANA

CITY           SKY/WX    TMP DP  RH WIND       PRES   REMARKS
GARY*          SUNNY     82  68  61 SE6       30.01S
VALPARAISO     SUNNY    N/A N/A N/A MISG      30.02S
MICHIGAN CITY* SUNNY     82  70  65 S5        30.02S
LAPORTE*       SUNNY     82  70  67 S6        30.03S
KNOX*          SUNNY     82  72  69 S7        30.02S
SOUTH BEND     SUNNY     82  69  64 S9        30.03S
ELKHART*       MOSUNNY   82  66  57 SE5       30.03S
GOSHEN         SUNNY     84  66  54 S7        30.03F
MONTICELLO*    SUNNY     83  70  63 S6        30.01F
LOGANSPORT*    MOSUNNY   82  68  61 SE3       30.04S
ROCHESTER*     SUNNY     86  70  58 S6        30.04S
WARSAW*        MOSUNNY   81  68  65 S6        30.04S
AUBURN*        SUNNY     81  66  61 SE3       30.06S
FORT WAYNE     MOSUNNY   84  68  58 E7        30.05F
HUNTINGTON*    SUNNY     83  70  65 S3        30.04F
PERU/GRISSOM   SUNNY     84  70  61 S6        30.03S
MARION*        MOSUNNY   82  70  65 SW3       30.05S

$$
INZ028>050-161700-
CENTRAL INDIANA

CITY           SKY/WX    TMP DP  RH WIND       PRES   REMARKS
LAFAYETTE      MOSUNNY   81  71  71 S7        30.01S
KOKOMO*        MOSUNNY   84  70  62 SE6       30.05S
MUNCIE*        MOSUNNY   86  66  51 S6        30.04F
INDIANAPOLIS   PTSUNNY   85  70  60 SE7       30.03S

$$
MIZ043>046-050>051-056>058-064>065-071>073-077>080-161700-
SOUTHWEST LOWER MICHIGAN

CITY           SKY/WX    TMP DP  RH WIND       PRES   REMARKS
BATTLE CREEK   SUNNY     80  67  64 VRB5      30.06S
BENTON HARBOR  SUNNY     84  64  50 SE6       30.01F
COLDWATER*     PTSUNNY   80  66  62 SE7       30.06S
HILLSDALE*     PTSUNNY   79  63  57 SE9       30.07S
HOLLAND        PTSUNNY   79  65  62 S5        30.03F
GRAND RAPIDS   MOSUNNY   81  66  60 VRB6      30.04F
KALAMAZOO      SUNNY     82  64  54 S8        30.04F
STURGIS*       MOSUNNY   80  67  64 CALM      30.04S
THREE RIVERS*  FAIR      83  65  54 SE6       30.04F

$$
OHZ001>008-015>018-024>025-161700-
NORTHWEST OHIO

CITY           SKY/WX    TMP DP  RH WIND       PRES   REMARKS
WAUSEON*       FAIR      81  66  61 SE8       30.07S
DEFIANCE       SUNNY     80  67  64 SE8       30.05F
FINDLAY        SUNNY     82  66  58 E5        30.06S
TOLEDO EXPRESS SUNNY     80  63  55 SE8       30.07S
TOLEDO METCALF SUNNY     81  64  56 SE12      30.08S
LIMA           PTSUNNY   83  68  60 SE6       30.06S

$$
AND FOR LAKE MICHIGAN COASTAL AND OPEN LAKE BUOY OBSERVATIONS

STATION/POSITION TEMP    WIND        PRES    VSBY  WAVE
                 AIR SEA DIR/SP/G                  HT/PER
                 (F)     (DEG/KT/KT) (MB)    (MI)  (FT/S)
CALUMET HARBOR    74      50/  5/  6 1015.5R
MICHIGAN CITY     80     150/  4/  5   N/A
BURNS HARBOR      75      50/  6/  7 1016.3F
SAINT JOSEPH      78      10/  4/  6 1016.9
SOUTH LAKE BUOY   71 71   80/  6/  6 1016.4F         1
4 MI NW BRIDGMAN  75 75   40/  4/  4 1016.0          1/ 4
MICHIGAN CITY     75 75   60/  4/  6   N/A           1/ 4

$$
&&




USA.gov is the U.S. government's official web portal to all federal, state and local government web resources and services.